Buckland, AK

2:03 PM AKST on February 20, 2017 (GMT -0900)
Buckland

Weather History for PABL - October, 2011

Change the Weather History Date:

Sunday, October 30, 2011

  Actual Average (PASK) Record (PASK)
Temperature  
Mean Temperature 2 °F -  
Max Temperature 12 °F 16 °F 39 °F (2002)
Min Temperature -7 °F 9 °F -5 °F (2011)
Degree Days  
Heating Degree Days 62    
Moisture  
Dew Point -3 °F    
Average Humidity 81    
Maximum Humidity 100    
Minimum Humidity 60    
Precipitation  
Precipitation 0.00 in - - ()
Sea Level Pressure  
Sea Level Pressure 29.60 in    
Wind  
Wind Speed 2 mph (ENE)    
Max Wind Speed 8 mph    
Max Gust Speed -    
Visibility 10 miles    
Events      
Averages and records for this station are not official NWS values.
T = Trace of Precipitation, MM = Missing Value Source: NWS Daily Summary

Daily Weather History Graph

Daily Weather History Graph

Search for Another Location

Airport or City:

Trip Planner

Search our weather history database for the weather conditions in past years. The results will help you decide how hot, cold, wet, or windy it might be!

Date:

Astronomy

Oct. 30, 2011 Rise Set
Actual Time 10:32 AM AKDT 6:22 PM AKDT
Civil Twilight 9:35 AM AKDT 7:19 PM AKDT
Nautical Twilight 8:34 AM AKDT 8:20 PM AKDT
Astronomical Twilight 7:34 AM AKDT 9:19 PM AKDT
Moon 4:44 PM AKDT (10/30) 8:26 PM AKDT (10/30)
Length of Visible Light 9h 44m
Length of Day
7h 50m
Waxing Crescent, 21% of the Moon is Illuminated
Oct 30
Waxing Crescent
Nov 2
First Quarter
Nov 10
Full
Nov 18
Last Quarter
Nov 24
New

Hourly Weather History & Observations

Time (AKDT) Temp. Windchill Dew Point Humidity Pressure Visibility Wind Dir Wind Speed Gust Speed Precip Events Conditions
12:16 AM 12.2 °F 2.9 °F 6.8 °F 79% 29.45 in 10.0 mi NW 5.8 mph - N/A   Overcast
12:36 AM 12.2 °F 6.1 °F 6.8 °F 79% 29.46 in 10.0 mi NW 3.5 mph - N/A   Overcast
12:56 AM 12.2 °F 6.1 °F 6.8 °F 79% 29.46 in 10.0 mi North 3.5 mph - N/A   Overcast
1:16 AM 12.2 °F 4.3 °F 8.6 °F 85% 29.46 in 10.0 mi NNW 4.6 mph - N/A   Overcast
1:36 AM 10.4 °F - 6.8 °F 85% 29.47 in 10.0 mi Calm Calm - N/A   Overcast
1:56 AM 10.4 °F - 6.8 °F 85% 29.47 in 10.0 mi Calm Calm - N/A   Overcast
2:16 AM 10.4 °F - 6.8 °F 85% 29.47 in 10.0 mi Calm Calm - N/A   Overcast
2:36 AM 10.4 °F 2.2 °F 5.0 °F 79% 29.48 in 10.0 mi WNW 4.6 mph - N/A   Mostly Cloudy
2:56 AM 8.6 °F - 1.4 °F 73% 29.48 in 10.0 mi Calm Calm - N/A   Clear
3:16 AM 6.8 °F - 1.4 °F 79% 29.49 in 10.0 mi Calm Calm - N/A   Clear
3:36 AM 5.0 °F - -0.4 °F 78% 29.50 in 10.0 mi Calm Calm - N/A   Clear
3:56 AM 6.8 °F - 1.4 °F 79% 29.50 in 10.0 mi Calm Calm - N/A   Clear
4:16 AM 3.2 °F - -0.4 °F 85% 29.50 in 10.0 mi Calm Calm - N/A   Clear
4:36 AM 3.2 °F - -0.4 °F 85% 29.51 in 10.0 mi Calm Calm - N/A   Clear
4:56 AM -0.4 °F - -5.8 °F 78% 29.51 in 10.0 mi Calm Calm - N/A   Clear
5:16 AM -0.4 °F - -2.2 °F 92% 29.52 in 10.0 mi Calm Calm - N/A   Clear
5:36 AM -0.4 °F - -5.8 °F 78% 29.53 in 10.0 mi Calm Calm - N/A   Mostly Cloudy
5:56 AM 1.4 °F - 1.4 °F 100% 29.53 in 10.0 mi Calm Calm - N/A   Partly Cloudy
6:16 AM -2.2 °F - -9.4 °F 71% 29.54 in 10.0 mi Calm Calm - N/A   Mostly Cloudy
6:36 AM -2.2 °F -10.4 °F -7.6 °F 78% 29.54 in 10.0 mi ENE 3.5 mph - N/A   Overcast
6:56 AM -2.2 °F - -7.6 °F 78% 29.55 in 10.0 mi Calm Calm - N/A   Mostly Cloudy
7:16 AM 1.4 °F - 1.4 °F 100% 29.55 in 10.0 mi Calm Calm - N/A   Partly Cloudy
7:36 AM -2.2 °F - -11.2 °F 66% 29.56 in 10.0 mi Calm Calm - N/A   Clear
7:56 AM -5.8 °F - -11.2 °F 77% 29.56 in 10.0 mi Calm Calm - N/A   Clear
8:16 AM -2.2 °F - -2.2 °F 100% 29.57 in 10.0 mi Calm Calm - N/A   Clear
8:36 AM -2.2 °F - -13.0 °F 60% 29.58 in 10.0 mi Calm Calm - N/A   Clear
8:56 AM -4.0 °F - -9.4 °F 78% 29.58 in 10.0 mi Calm Calm - N/A   Clear
9:16 AM -4.0 °F - -5.8 °F 92% 29.59 in 10.0 mi Calm Calm - N/A   Clear
9:36 AM -5.8 °F - -16.6 °F 60% 29.60 in 10.0 mi Calm Calm - N/A   Clear
9:56 AM -5.8 °F - -5.8 °F 100% 29.60 in 10.0 mi Calm Calm - N/A   Clear
10:16 AM -4.0 °F - -9.4 °F 78% 29.61 in 10.0 mi Calm Calm - N/A   Clear
10:36 AM -5.8 °F - -13.0 °F 71% 29.62 in 10.0 mi Calm Calm - N/A   Clear
10:56 AM -7.6 °F - -11.2 °F 84% 29.63 in 10.0 mi Calm Calm - N/A   Clear
11:16 AM -5.8 °F - -7.6 °F 92% 29.63 in 10.0 mi Calm Calm - N/A   Clear
11:36 AM -5.8 °F - -14.8 °F 65% 29.64 in 0.8 mi Calm Calm - N/A   Unknown
11:56 AM -5.8 °F - -11.2 °F 77% 29.64 in 10.0 mi Calm Calm - N/A   Clear
12:36 PM -2.2 °F - -11.2 °F 66% 29.66 in 10.0 mi Calm Calm - N/A   Clear
12:56 PM -0.4 °F - -5.8 °F 78% 29.67 in 10.0 mi Calm Calm - N/A   Clear
1:16 PM -0.4 °F - -4.0 °F 85% 29.67 in 10.0 mi Calm Calm - N/A   Clear
1:36 PM 1.4 °F - -0.4 °F 92% 29.68 in 10.0 mi Calm Calm - N/A   Clear
1:56 PM 3.2 °F - -0.4 °F 85% 29.68 in 10.0 mi Calm Calm - N/A   Clear
2:16 PM 1.4 °F - -2.2 °F 85% 29.69 in 10.0 mi Calm Calm - N/A   Clear
2:36 PM 1.4 °F - -2.2 °F 85% 29.70 in 10.0 mi Calm Calm - N/A   Clear
3:16 PM 3.2 °F - -0.4 °F 85% 29.71 in 10.0 mi Calm Calm - N/A   Clear
3:36 PM 3.2 °F - 1.4 °F 92% 29.71 in 10.0 mi Calm Calm - N/A   Clear
3:56 PM 3.2 °F - 1.4 °F 92% 29.71 in 10.0 mi Calm Calm - N/A   Clear
4:16 PM 5.0 °F - 1.4 °F 85% 29.71 in 10.0 mi Calm Calm - N/A   Clear
4:36 PM 3.2 °F -4.2 °F -2.2 °F 78% 29.72 in 10.0 mi SE 3.5 mph - N/A   Clear
4:56 PM 3.2 °F -4.2 °F 1.4 °F 92% 29.72 in 10.0 mi SSE 3.5 mph - N/A   Clear
5:16 PM 1.4 °F -6.2 °F -4.0 °F 78% 29.72 in 10.0 mi SE 3.5 mph - N/A   Clear
5:36 PM -0.4 °F - -7.6 °F 72% 29.72 in 10.0 mi Calm Calm - N/A   Clear
5:56 PM -0.4 °F -8.3 °F -2.2 °F 92% 29.73 in 10.0 mi ESE 3.5 mph - N/A   Clear
6:16 PM -0.4 °F - -5.8 °F 78% 29.73 in 10.0 mi Calm Calm - N/A   Clear
6:36 PM -2.2 °F - -9.4 °F 71% 29.74 in 10.0 mi Calm Calm - N/A   Partly Cloudy
6:56 PM -2.2 °F - -5.8 °F 85% 29.74 in 10.0 mi Calm Calm - N/A   Mostly Cloudy
7:16 PM -2.2 °F -16.8 °F -7.6 °F 78% 29.74 in 10.0 mi SSE 8.1 mph - N/A   Overcast
7:36 PM -0.4 °F -13.4 °F -4.0 °F 85% 29.74 in 10.0 mi East 6.9 mph - N/A   Overcast
7:56 PM 1.4 °F - -2.2 °F 85% 29.74 in 10.0 mi Calm Calm - N/A   Overcast
8:16 PM -0.4 °F -10.4 °F -2.2 °F 92% 29.74 in 10.0 mi ESE 4.6 mph - N/A   Overcast
8:36 PM -0.4 °F -8.3 °F -7.6 °F 72% 29.75 in 10.0 mi SSE 3.5 mph - N/A   Overcast
8:56 PM -2.2 °F -14.2 °F -5.8 °F 85% 29.74 in 10.0 mi SSE 5.8 mph - N/A   Scattered Clouds
9:16 PM -4.0 °F -14.6 °F -11.2 °F 71% 29.75 in 10.0 mi SSE 4.6 mph - N/A   Clear
9:36 PM -2.2 °F -15.6 °F -4.0 °F 92% 29.75 in 10.0 mi ESE 6.9 mph - N/A   Clear
9:56 PM -2.2 °F -12.5 °F -7.6 °F 78% 29.75 in 10.0 mi SE 4.6 mph - N/A   Clear
10:16 PM -2.2 °F -10.4 °F -7.6 °F 78% 29.76 in 10.0 mi SE 3.5 mph - N/A   Clear
10:36 PM -5.8 °F -18.4 °F -11.2 °F 77% 29.77 in 10.0 mi South 5.8 mph - N/A   Clear
10:56 PM -5.8 °F -19.9 °F -9.4 °F 84% 29.77 in 10.0 mi South 6.9 mph - N/A   Clear
11:16 PM -4.0 °F -17.8 °F -7.6 °F 85% 29.77 in 10.0 mi South 6.9 mph - N/A   Clear
11:36 PM -4.0 °F -16.3 °F -9.4 °F 78% 29.78 in 10.0 mi South 5.8 mph - N/A   Clear
11:56 PM -5.8 °F -18.4 °F -11.2 °F 77% 29.78 in 10.0 mi SSE 5.8 mph - N/A   Clear